Regional Weather Roundup
Issued by NWS Little Rock, AR

Home | Current Version | Previous Version | Graphics & Text | Print | Product List | Glossary On
Versions: 1 2 3 4 5 6 7 8 9 10 11 12 13 14 15 16 17 18 19 20 21 22 23 24 25 26 27 28 29 30 31 32 33 34 35 36 37 38 39 40 41 42 43 44 45 46 47 48 49 50
195
ASUS44 KLZK 190305
RWRLZK

WEATHER ROUNDUP FOR ARKANSAS
NATIONAL WEATHER SERVICE LITTLE ROCK AR
900 PM CST SAT FEB 18 2017

NOTE: "FAIR" INDICATES FEW OR NO CLOUDS BELOW 12,000 FEET WITH NO
SIGNIFICANT WEATHER AND/OR OBSTRUCTIONS TO VISIBILITY.

ARZ001-003-010-029-190400-
NORTHWEST ARKANSAS

CITY           SKY/WX    TMP DP  RH WIND       PRES   REMARKS
FAYETTEVILLE   CLEAR     50  47  89 CALM      29.89R
FORT SMITH     CLEAR     54  50  86 S3        29.89R
HARRISON       CLEAR     56  47  71 SE5       29.89R
BENTONVILLE    CLEAR     55  48  76 CALM      29.89S
ROGERS         CLEAR     58  50  75 SW6       29.89S
SILOAM SPGS    CLEAR     55  46  71 SE3       29.88R
HIGHFILL       CLEAR     51  47  86 CALM      29.88R
SPRINGDALE     CLEAR     54  48  82 CALM      29.90R
$$

ARZ004-005-016-190400-
NORTH CENTRAL ARKANSAS

CITY           SKY/WX    TMP DP  RH WIND       PRES   REMARKS
BATESVILLE     CLEAR     57  52  82 S7        29.93R
FLIPPIN        CLEAR     57  46  67 E5        29.88R
MTN HOME       CLEAR     55  51  86 SE5       29.90R
$$

ARZ040-041-190400-
WEST CENTRAL ARKANSAS

CITY           SKY/WX    TMP DP  RH WIND       PRES   REMARKS
MENA             N/A     50  48  93 CALM      29.92R
MOUNT IDA      CLEAR     54  53  97 CALM      29.90R FOG
$$

ARZ009-017-025-026-028-190400-
NORTHEAST ARKANSAS

CITY           SKY/WX    TMP DP  RH WIND       PRES   REMARKS
CORNING        FOG       48  48 100 E5        29.94R VSB 1/4
JONESBORO      PTCLDY    52  51  97 CALM      29.93R
NEWPORT        CLOUDY    52  51  97 S7          N/A
WALNUT RIDGE   CLEAR     52  48  87 S7        29.93R
BLYTHEVILLE    CLOUDY    56  53  90 MISG      29.95R
$$

ARZ022-023-033-042-044-190400-
CENTRAL ARKANSAS

CITY           SKY/WX    TMP DP  RH WIND       PRES   REMARKS
LITTLE ROCK    PTCLDY    53  52  96 SE5       29.93R
N LITTLE ROCK    N/A     56  53  88 CALM      29.93R
JACKSONVILLE   CLEAR     51  50  97 CALM      29.92R
SEARCY         CLEAR     52  51  97 CALM      29.95R
HOT SPRINGS    CLEAR     52  52 100 NE3       29.92R
RUSSELLVILLE   CLEAR     54  51  90 CALM      29.89S
CLINTON        FAIR      50  48  93 CALM      29.93R FOG
$$

ARZ036-190400-
EAST ARKANSAS

CITY           SKY/WX    TMP DP  RH WIND       PRES   REMARKS
WEST MEMPHIS   CLOUDY    56  53  90 SW5       29.95R
$$

ARZ050-053-066-070-073-190400-
SOUTHWEST ARKANSAS

CITY           SKY/WX    TMP DP  RH WIND       PRES   REMARKS
ARKADELPHIA    FOG       49  49 100 CALM      29.93R VSB 1/4
CAMDEN         FOG       54  50  87 CALM      29.93R VSB 1/2
TEXARKANA      CLEAR     57  56  96 E5        29.90R
EL DORADO      CLEAR     52  52 100 NE3       29.92R
DE QUEEN       CLEAR     52  52 100 E5        29.89R FOG
$$

ARZ056-057-069-190400-
SOUTHEAST ARKANSAS

CITY           SKY/WX    TMP DP  RH WIND       PRES   REMARKS
PINE BLUFF     CLEAR     56  53  90 CALM      29.93R
STUTTGART      CLEAR     57  46  67 SE9       29.94S
MONTICELLO     CLEAR     57  54  89 SE3       29.93R

$$






USA.gov is the U.S. government's official web portal to all federal, state and local government web resources and services.